Regional Weather Roundup
Issued by NWS

Home | Current Version | Previous Version | Graphics & Text | Print | Product List | Glossary On
Versions: 1 2 3 4 5 6 7 8 9 10 11 12 13 14 15 16 17 18 19 20 21 22 23 24 25 26 27 28 29 30 31 32 33 34 35 36 37 38 39 40 41 42 43 44 45 46 47 48 49 50
000
ASUS43 KMPX 301710
RWRMN
WEATHER ROUNDUP FOR MINNESOTA
NATIONAL WEATHER SERVICE TWIN CITIES/CHANHASSEN MN
1200 PM CDT SAT JUL 30 2016


NOTE: "FAIR" INDICATES FEW OR NO CLOUDS BELOW 12,000 FEET WITH NO
SIGNIFICANT WEATHER AND/OR OBSTRUCTIONS TO VISIBILITY. N/A MEANS
CURRENT SKY AND/OR WEATHER CONDITIONS ARE NOT AVAILABLE.

MNZ060>063-068>070-301800-
   Twin Cities Metro

CITY           SKY/WX    TMP DP  RH WIND       PRES   REMARKS
TWIN CITIES    CLOUDY    74  64  71 SE5       30.04F
ST PAUL        MOSUNNY   76  64  66 SE6       30.04S
CRYSTAL        MOSUNNY   74  61  63 SE7       30.03S
BLAINE         PTSUNNY   75  64  69 E7        30.04S
LAKEVILLE      MOSUNNY   73  66  78 S3        30.04S
EDEN PRAIRIE   PTSUNNY   76  64  66 SE5       30.03S
LAKEVILLE      MOSUNNY   73  66  78 S3        30.04S
SOUTH ST PAUL  MOSUNNY   76  61  60 S8        30.03F
LAKE ELMO      FAIR      75  63  64 SE6       30.05S
$$
MNZ001>005-007-008-013>017-022>024-027-028-301800-
   Northwest Minnesota

CITY           SKY/WX    TMP DP  RH WIND       PRES   REMARKS
BEMIDJI        CLOUDY    68  61  77 W5        30.05R
HALLOCK        SUNNY     77  63  61 S16G22    29.92S
ROSEAU         CLOUDY    75  66  73 S7        29.97S
WARROAD        MOSUNNY   75  66  73 S7        29.98S
THIEF RVR FALL CLOUDY    72  62  71 S13       30.00S
CROOKSTON      SUNNY     75  64  69 S12G18    29.98S
FOSSTON        CLOUDY    70  66  88 SE7       30.02S
DETROIT LAKES  MOSUNNY   72  61  68 S5        30.04R
MOORHEAD       MOSUNNY   75  61  60 S7        29.99S
PARK RAPIDS    CLOUDY    75  57  53 S7        30.04S
MAHNOMEN       CLOUDY    74  60  62 S9        30.01S
$$
MNZ006-009>011-018-025>026-301800-
   North Central Minnesota

CITY           SKY/WX    TMP DP  RH WIND       PRES   REMARKS
BAUDETTE       PTSUNNY   76  62  62 S9        29.99S
FLAG ISLAND    SUNNY     73  64  73 S8        29.97S
INTL FALLS     MOSUNNY   75  59  57 SE7       30.02F
WASKISH        MOSUNNY   75  63  64 SW12      30.02S
BIG FORK       MOSUNNY   77  61  57 SW5       30.04F
LONGVILLE      MOSUNNY   75  55  50 S5        30.04F
GRAND RAPIDS   SUNNY     73  57  57 CALM      30.07F
CRANE LAKE     SUNNY     73  54  49 S6        30.06F
ORR            SUNNY     75  52  43 CALM      30.03S
COOK           SUNNY     72  54  53 CALM      30.06S
WALKER         CLOUDY    74  57  56 S8        30.04S
$$
MNZ012-019>021-037-301800-
   Northeast Minnesota

CITY           SKY/WX    TMP DP  RH WIND       PRES   REMARKS
DULUTH         MOSUNNY   70  58  65 SE7       30.07S
ELY            MOSUNNY   73  54  49 S8        30.07S
HIBBING        SUNNY     71  49  45 VRB3      30.06S
EVELETH        SUNNY     73  50  44 SE5       30.08S
DULUTH HARBOR  SUNNY     68  63  83 NE6       30.08S
TWO HARBORS    SUNNY     75  61  60 E6        30.06S
SILVER BAY     SUNNY     72  55  56 E8        30.06S
GRAND MARAIS     N/A     67  58  72 E6        30.08S
G MARAIS ARPRT SUNNY     70  50  49 E3        30.11F
$$
MNZ029>031-032-039>041-046>048-054>057-064-301800-
   West Central Minnesota

CITY           SKY/WX    TMP DP  RH WIND       PRES   REMARKS
FERGUS FALLS   PTSUNNY   73  61  64 S12       30.03S
WHEATON        MOSUNNY   79  61  53 SE9G17    30.03S
MORRIS         SUNNY     79  57  47 S5        30.02S
ALEXANDRIA     SUNNY     74  55  51 SE10      30.06S
ELBOW LAKE     FAIR      74  61  62 S12       30.04S
WADENA         PTSUNNY   73  55  53 SE8       30.04R
GLENWOOD       SUNNY     75  55  50 CALM      30.06S
APPLETON       SUNNY     75  57  53 SE7       30.02S
BENSON         SUNNY     75  54  46 S6        30.03F
ORTONVILLE     SUNNY     77  57  50 S8        30.01F
MADISON        SUNNY     75  57  53 S8        30.02S
WILLMAR        FAIR      73  59  60 CALM      30.05F
$$
MNZ033>034-036-042>043-049>051-058-059-301800-
   Central Minnesota

CITY           SKY/WX    TMP DP  RH WIND       PRES   REMARKS
ST CLOUD       MOSUNNY   75  61  61 E5        30.03F
SAUK CENTRE    FAIR      74  56  53 SE8       30.05F
PAYNESVILLE    SUNNY     74  56  52 SE6       30.06R
AITKIN         SUNNY     79  48  34 CALM      30.04S
PINE RIVER     SUNNY     75  57  53 SE5       30.08S
BRAINERD       SUNNY     75  55  49 VRB5      30.05S
STAPLES        SUNNY     73  55  53 SE7       30.05S
LONG PRAIRIE   FAIR      72  55  56 E5        30.06S
LITTLE FALLS   SUNNY     73  54  49 S5        30.05S
LITCHFIELD     SUNNY     75  55  50 CALM      30.05S
BUFFALO        SUNNY     76  60  58 E3        30.04F
MAPLE LAKE     SUNNY     76  65  69 CALM      30.05S
HUTCHINSON     SUNNY     76  60  57 E3        30.05S HAZE
$$
MNZ037-044-045-052-053-301800-
   East Central Minnesota

CITY           SKY/WX    TMP DP  RH WIND       PRES   REMARKS
PRINCETON      PTSUNNY   79  64  61 SE6       30.04F
MORA           PTSUNNY   73  61  64 S3        30.07S
CAMBRIDGE      CLOUDY    77  63  61 CALM      30.03S
RUSH CITY      PTSUNNY   74  63  68 CALM      30.05S
MOOSE LAKE     MOSUNNY   72  61  68 CALM      30.04F
HINCKLEY       PTSUNNY   73  64  73 E3        30.06S
CLOQUET        SUNNY     72  57  60 S5        30.07S
MCGREGOR       SUNNY     75  52  43 CALM      30.06S
$$
MNZ071>073-080-081-089-090-097-098-301800-
   Southwest Minnesota

CITY           SKY/WX    TMP DP  RH WIND       PRES   REMARKS
MONTEVIDEO     MOSUNNY   79  59  50 SE5       30.04F
GRANITE FALLS  SUNNY     76  57  50 E3        30.05S
CANBY          SUNNY     77  55  45 E6        30.03F
MARSHALL       MOSUNNY   75  55  49 SE5       30.03F
REDWOOD FALLS  SUNNY     76  54  46 VRB3      30.03S
OLIVIA         MOSUNNY   73  54  49 S3        30.03F
PIPESTONE      MOSUNNY   73  57  56 S2        30.04F
WINDOM         SUNNY     73  54  49 CALM      30.05S
WORTHINGTON    SUNNY     73  52  47 VRB3      30.05F
JACKSON        SUNNY     73  52  46 SW3       30.06S
TRACY          SUNNY     76  57  52 SE3       30.04F
SLAYTON        SUNNY     74  51  44 CALM      30.05F
$$
MNZ065>067-074>077-082>085-091>093-301800-
   South Central Minnesota

CITY           SKY/WX    TMP DP  RH WIND       PRES   REMARKS
MANKATO        MOSUNNY   75  57  53 E6        30.04S
NEW ULM        SUNNY     75  54  46 SE5       30.04S
ST JAMES       SUNNY     72  52  49 CALM      30.05S
FAIRMONT       SUNNY     75  54  46 CALM      30.04S
GLENCOE        MOSUNNY   78  62  58 CALM      30.03S
FARIBAULT      MOSUNNY   73  64  73 CALM      30.04F
OWATONNA       MOSUNNY   75  63  64 CALM      30.04S
WASECA         CLOUDY    72  63  73 SW3       30.06S
ALBERT LEA     MOSUNNY   75  64  69 CALM      30.04F
$$
MNZ078>079-086>088-094>096-301800-
   Southeast Minnesota

CITY           SKY/WX    TMP DP  RH WIND       PRES   REMARKS
ROCHESTER      MOSUNNY   75  65  70 VRB3      30.06S
RED WING       SUNNY     77  57  50 S7        30.03S
STANTON        CLOUDY    75  64  69 CALM      30.03S
DODGE CENTER   PTSUNNY   77  64  65 SE5       30.05S
WINONA         CLOUDY    77  61  57 E6        30.04S
AUSTIN         RAIN      68  64  88 W5        30.05S
PRESTON        CLOUDY    73  62  69 CALM      30.06S
$$
ABBREVIATIONS USED IN REMARKS
   TC - TEMPERATURES IN CELSIUS
  WCI - WIND CHILL INDEX
   HX - HEAT INDEX
  VSB - VISIBILITY
$$



USA.gov is the U.S. government's official web portal to all federal, state and local government web resources and services.